Weather in Novozavidovsky

Russia / Tver Oblast     56°33′11″N   36°26′06″E
В апреле 2022 года жителям России запретили посещать сайт meteo.paraplan.net по решению Генеральной прокуратуры. Аудитория сайта уменьшилась в 10 раз. Владельцы сайта не видят смысла в поддержке погодного сервера в таких условиях. Сайт будет закрыт в октябре.
temp.,
°C
wind,
m/s
gust,
m/s
humid.,
%
clouds,
%
prec.,
mm/h
press.,
hPa
HPBL,
m
3 october, mon
mon300:00+8ne61396100 1.1 1001535
03:00+9ene61596100 7.6 997626
06:00+10e71697100 2.2 995648
09:00+13e71594100 3.4 9931043
12:00+14ese71692100 1.3 9921464
15:00+12sse51383100 2.7 9951332
18:00+8sse61378100 0.1 9981275
21:00+8se71483100 0.4 9991386
4 october, tue
tue400:00+8sse51587100 0.4 10001540
03:00+10sse81781100 1.4 10001510
06:00+9sse81678100 0.1 10011440
09:00+9sse71580100 0.3 10031640
12:00+6ssw41093100 2.2 1006863
15:00+9sse5127991 2.4 10061357
18:00+7sse4990100 1.6 1007986
21:00+7sse4890100 2.4 10071002
5 october, wed
wed500:00+6s4891100 0.1 1008995
03:00+6sse3693100 0.9 1008836
06:00+6ssw2594100 1.3 1009918
09:00+5sw2492100 1.9 1010755
12:00+6wsw2491100 0.4 1011455
15:00+7wsw258099 0.6 1012749
18:00+6w379072 0.3 1014498
21:00+6wsw389197 0.3 1015445
6 october, thu
thu600:00+4wsw379685 0.1 1016232
03:00+3wsw269737 0.1 1016128
06:00+4ssw2595100 0.1 1016151
09:00+5sse2695100 0.6 1015213
12:00+7s3797100 1.0 1014292
15:00+9ssw3898100 1.1 1013370
18:00+10sw4129644 0.2 1012465
21:00+10wsw51494100 0.2 1012553
7 october, fri
fri700:00+12w5129017 0.3 1013876
03:00+9w513926 0.3 1015711
06:00+9w41087100 0.1 1016997
09:00+9w51283100 0.1 10171199
12:00+12wsw7137616 0.0 10171092
15:00+13w612685 0.2 10171453
18:00+11w512735 0.0 1019741
21:00+9wsw413858 0.0 1020490